HAZ261C ZPPP-ZSHC

Flight info

Callsign HAZ261C
Flight time 2h 44m
Altitude 29100
Route NOD9Z NODIB W137 LPS A581 IDGAG W80 XSH DCT JDZ DCT TXN G204 OREXA ORE82A
Aircraft A321/M-SDE2E3FGILORWXY/LB1D1

Departure

Time 2026-05-04 13:00
Airport Kunming Changshui International Airport (ZPPP)

Arrival

Time 2026-05-04 15:44
Airport Hangzhou Xiaoshan International Airport (ZSHC)
Time Latitude Longitude Altitude Speed Heading
2026-05-04 12:08 25.10920 102.94082 6921 ft 0 kts 309°
2026-05-04 12:35 25.10918 102.94085 6921 ft 2 kts 309°
2026-05-04 12:35 25.10907 102.94098 6931 ft 2 kts 309°
2026-05-04 12:35 25.10897 102.94112 6930 ft 2 kts 309°
2026-05-04 12:35 25.10886 102.94125 6926 ft 2 kts 345°
2026-05-04 12:36 25.10869 102.94127 6933 ft 2 kts 13°
2026-05-04 12:36 25.10854 102.94121 6932 ft 2 kts 34°
2026-05-04 12:36 25.10851 102.94119 6931 ft 0 kts 37°
2026-05-04 12:39 25.10854 102.94122 6921 ft 2 kts 37°
2026-05-04 12:39 25.10861 102.94128 6934 ft 0 kts 37°
2026-05-04 12:39 25.10871 102.94136 6921 ft 5 kts 39°
2026-05-04 12:39 25.10914 102.94175 6921 ft 11 kts 39°
2026-05-04 12:40 25.10993 102.94244 6928 ft 18 kts 38°
2026-05-04 12:40 25.11069 102.94307 6934 ft 8 kts 25°
2026-05-04 12:40 25.11118 102.94305 6927 ft 7 kts 336°
2026-05-04 12:40 25.11165 102.94254 6924 ft 13 kts 309°
2026-05-04 12:41 25.11238 102.94154 6926 ft 20 kts 308°
2026-05-04 12:41 25.11324 102.94034 6934 ft 17 kts 308°
2026-05-04 12:41 25.11395 102.93936 6930 ft 15 kts 308°
2026-05-04 12:41 25.11458 102.93849 6923 ft 14 kts 308°
2026-05-04 12:42 25.11528 102.93752 6928 ft 19 kts 309°
2026-05-04 12:42 25.11620 102.93625 6933 ft 23 kts 308°
2026-05-04 12:42 25.11711 102.93491 6931 ft 21 kts 309°
2026-05-04 12:42 25.11782 102.93394 6929 ft 8 kts 307°
2026-05-04 12:43 25.11828 102.93359 6925 ft 8 kts 349°
2026-05-04 12:43 25.11875 102.93375 6927 ft 8 kts 33°
2026-05-04 12:43 25.11926 102.93418 6929 ft 10 kts 38°
2026-05-04 12:43 25.11989 102.93473 6921 ft 13 kts 38°
2026-05-04 12:44 25.12063 102.93538 6921 ft 15 kts 38°
2026-05-04 12:44 25.12142 102.93607 6929 ft 14 kts 38°
2026-05-04 12:44 25.12211 102.93666 6930 ft 12 kts 38°
2026-05-04 12:44 25.12268 102.93716 6930 ft 9 kts 38°
2026-05-04 12:45 25.12313 102.93755 6921 ft 7 kts 38°
2026-05-04 12:45 25.12346 102.93784 6921 ft 5 kts 38°
2026-05-04 12:45 25.12367 102.93802 6921 ft 5 kts 38°
2026-05-04 12:45 25.12404 102.93834 6934 ft 8 kts 38°
2026-05-04 12:46 25.12442 102.93868 6921 ft 6 kts 38°
2026-05-04 12:46 25.12469 102.93890 6924 ft 4 kts 38°
2026-05-04 12:46 25.12473 102.93894 6926 ft 0 kts 38°
2026-05-04 12:48 25.12488 102.93907 6927 ft 5 kts 38°
2026-05-04 12:49 25.12520 102.93935 6927 ft 5 kts 38°
2026-05-04 12:49 25.12543 102.93955 6926 ft 3 kts 38°
2026-05-04 12:49 25.12557 102.93967 6921 ft 3 kts 38°
2026-05-04 12:49 25.12585 102.93991 6925 ft 5 kts 38°
2026-05-04 12:50 25.12590 102.93996 6927 ft 0 kts 38°
2026-05-04 12:51 25.12593 102.93998 6929 ft 2 kts 38°
2026-05-04 12:51 25.12618 102.94020 6928 ft 7 kts 38°
2026-05-04 12:51 25.12663 102.94060 6928 ft 8 kts 38°
2026-05-04 12:51 25.12700 102.94092 6921 ft 6 kts 38°
2026-05-04 12:52 25.12748 102.94133 6921 ft 12 kts 38°
2026-05-04 12:52 25.12807 102.94184 6928 ft 10 kts 38°
2026-05-04 12:52 25.12836 102.94209 6928 ft 0 kts 38°
2026-05-04 12:54 25.12856 102.94227 6925 ft 8 kts 38°
2026-05-04 12:54 25.12898 102.94263 6928 ft 6 kts 36°
2026-05-04 12:55 25.12919 102.94276 6929 ft 0 kts 26°
2026-05-04 12:56 25.12928 102.94277 6925 ft 2 kts
2026-05-04 12:56 25.12948 102.94272 6925 ft 4 kts 338°
2026-05-04 12:56 25.12969 102.94251 6928 ft 0 kts 310°
2026-05-04 12:57 25.12981 102.94236 6931 ft 6 kts 310°
2026-05-04 12:58 25.13006 102.94202 6925 ft 5 kts 309°
2026-05-04 12:58 25.13022 102.94170 6925 ft 7 kts 288°
2026-05-04 12:58 25.13005 102.94115 6926 ft 8 kts 225°
2026-05-04 12:58 25.12997 102.94109 6921 ft 0 kts 219°
2026-05-04 12:59 25.12943 102.94061 6921 ft 38 kts 218°
2026-05-04 12:59 25.12548 102.93717 6921 ft 104 kts 218°
2026-05-04 12:59 25.11833 102.93095 6921 ft 155 kts 218°
2026-05-04 12:59 25.10904 102.92282 6974 ft 191 kts 219°
2026-05-04 13:00 25.09907 102.91312 7658 ft 191 kts 229°
2026-05-04 13:00 25.09056 102.90186 8426 ft 191 kts 233°
2026-05-04 13:00 25.08204 102.89300 8889 ft 192 kts 212°
2026-05-04 13:00 25.06886 102.88944 9045 ft 209 kts 181°
2026-05-04 13:01 25.05427 102.89048 9170 ft 222 kts 178°
2026-05-04 13:01 25.03832 102.89201 9300 ft 237 kts 177°
2026-05-04 13:01 25.02132 102.89374 9457 ft 255 kts 177°
2026-05-04 13:01 25.00295 102.89557 9743 ft 271 kts 177°
2026-05-04 13:02 24.98701 102.89712 10250 ft 275 kts 178°
2026-05-04 13:02 24.97187 102.89854 10697 ft 278 kts 178°
2026-05-04 13:02 24.95250 102.90032 11288 ft 281 kts 178°
2026-05-04 13:02 24.93288 102.90209 11845 ft 285 kts 178°
2026-05-04 13:03 24.91299 102.90388 12432 ft 288 kts 179°
2026-05-04 13:03 24.89292 102.90567 13008 ft 292 kts 179°
2026-05-04 13:03 24.87262 102.90868 13578 ft 300 kts 165°
2026-05-04 13:03 24.85457 102.92061 13919 ft 310 kts 133°
2026-05-04 13:04 24.84182 102.94042 14193 ft 327 kts 123°
2026-05-04 13:04 24.83117 102.96334 14308 ft 347 kts 109°
2026-05-04 13:04 24.82581 102.98978 14429 ft 363 kts 94°
2026-05-04 13:04 24.82645 103.01809 14547 ft 378 kts 78°
2026-05-04 13:05 24.83372 103.04635 14652 ft 391 kts 63°
2026-05-04 13:05 24.84785 103.07232 14762 ft 401 kts 47°
2026-05-04 13:05 24.86832 103.09344 14893 ft 408 kts 32°
2026-05-04 13:05 24.89181 103.11144 15196 ft 414 kts 31°
2026-05-04 13:06 24.91557 103.12953 15592 ft 417 kts 31°
2026-05-04 13:06 24.93954 103.14781 15992 ft 421 kts 31°
2026-05-04 13:06 24.96375 103.16632 16362 ft 425 kts 31°
2026-05-04 13:06 24.98816 103.18505 16764 ft 429 kts 31°
2026-05-04 13:07 25.01275 103.20393 17187 ft 432 kts 31°
2026-05-04 13:07 25.03748 103.22299 17575 ft 436 kts 31°
2026-05-04 13:07 25.06240 103.24219 17992 ft 438 kts 31°
2026-05-04 13:07 25.08749 103.26150 18406 ft 441 kts 31°
2026-05-04 13:08 25.11271 103.28091 18768 ft 443 kts 31°
2026-05-04 13:08 25.13807 103.30043 19112 ft 446 kts 31°
2026-05-04 13:08 25.16355 103.32007 19463 ft 448 kts 31°
2026-05-04 13:08 25.18919 103.33983 19811 ft 451 kts 31°
2026-05-04 13:09 25.21495 103.35970 20128 ft 453 kts 31°
2026-05-04 13:09 25.24085 103.37972 20474 ft 455 kts 31°
2026-05-04 13:09 25.26684 103.39984 20822 ft 457 kts 31°
2026-05-04 13:09 25.29295 103.42003 21153 ft 459 kts 31°
2026-05-04 13:10 25.31919 103.44033 21468 ft 462 kts 31°
2026-05-04 13:10 25.34521 103.46045 21817 ft 463 kts 31°
2026-05-04 13:10 25.37163 103.48090 22199 ft 464 kts 31°
2026-05-04 13:10 25.39814 103.50142 22501 ft 466 kts 31°
2026-05-04 13:11 25.42512 103.52236 22776 ft 470 kts 31°
2026-05-04 13:11 25.45199 103.54321 23053 ft 473 kts 31°
2026-05-04 13:11 25.47901 103.56415 23360 ft 475 kts 31°
2026-05-04 13:11 25.50599 103.58542 23641 ft 479 kts 34°
2026-05-04 13:12 25.53048 103.61007 23898 ft 486 kts 43°
2026-05-04 13:12 25.55204 103.63984 24133 ft 493 kts 53°
2026-05-04 13:12 25.57067 103.67185 24341 ft 496 kts 54°
2026-05-04 13:12 25.58930 103.70402 24569 ft 498 kts 54°
2026-05-04 13:13 25.60809 103.73636 24774 ft 500 kts 53°
2026-05-04 13:13 25.62696 103.76881 24995 ft 502 kts 53°
2026-05-04 13:13 25.64591 103.80139 25202 ft 504 kts 53°
2026-05-04 13:13 25.66496 103.83417 25413 ft 507 kts 53°
2026-05-04 13:14 25.68406 103.86709 25632 ft 509 kts 53°
2026-05-04 13:14 25.70325 103.90018 25860 ft 511 kts 53°
2026-05-04 13:14 25.72251 103.93344 26070 ft 514 kts 53°
2026-05-04 13:14 25.74181 103.96686 26295 ft 516 kts 53°
2026-05-04 13:15 25.76120 104.00043 26518 ft 518 kts 53°
2026-05-04 13:15 25.78066 104.03414 26726 ft 520 kts 53°
2026-05-04 13:15 25.79988 104.06746 26993 ft 520 kts 53°
2026-05-04 13:15 25.81940 104.10115 27271 ft 519 kts 52°
2026-05-04 13:16 25.83906 104.13475 27551 ft 519 kts 52°
2026-05-04 13:16 25.85880 104.16826 27837 ft 519 kts 52°
2026-05-04 13:16 25.87858 104.20173 28165 ft 518 kts 52°
2026-05-04 13:16 25.89833 104.23518 28483 ft 518 kts 52°
2026-05-04 13:17 25.91801 104.26861 28795 ft 517 kts 52°
2026-05-04 13:17 25.93768 104.30211 29104 ft 517 kts 52°
2026-05-04 13:17 25.95728 104.33560 29254 ft 516 kts 52°
2026-05-04 13:18 25.99603 104.40203 29240 ft 511 kts 52°
2026-05-04 13:18 26.03855 104.46429 29237 ft 500 kts 39°
2026-05-04 13:19 26.09087 104.51415 29225 ft 495 kts 33°
2026-05-04 13:19 26.14372 104.56313 29231 ft 494 kts 33°
2026-05-04 13:20 26.19631 104.61215 29213 ft 493 kts 33°
2026-05-04 13:20 26.24892 104.66112 29196 ft 493 kts 33°
2026-05-04 13:21 26.30161 104.71014 29209 ft 494 kts 33°
2026-05-04 13:21 26.35431 104.75930 29223 ft 494 kts 34°
2026-05-04 13:22 26.40703 104.80854 29244 ft 494 kts 34°
2026-05-04 13:22 26.45921 104.85729 29227 ft 494 kts 34°
2026-05-04 13:23 26.51188 104.90654 29218 ft 494 kts 34°
2026-05-04 13:23 26.56447 104.95586 29210 ft 494 kts 34°
2026-05-04 13:24 26.61662 105.00587 29207 ft 497 kts 39°
2026-05-04 13:24 26.65837 105.06844 29200 ft 511 kts 58°
2026-05-04 13:25 26.70253 105.17730 29213 ft 512 kts 62°
2026-05-04 13:25 26.73179 105.24977 29213 ft 511 kts 62°
2026-05-04 13:26 26.76092 105.32224 29200 ft 511 kts 62°
2026-05-04 13:26 26.78989 105.39475 29192 ft 511 kts 62°
2026-05-04 13:27 26.81896 105.46739 29197 ft 511 kts 62°
2026-05-04 13:27 26.84794 105.54007 29197 ft 511 kts 62°
2026-05-04 13:28 26.87684 105.61276 29196 ft 511 kts 62°
2026-05-04 13:28 26.90080 105.67315 29226 ft 511 kts 62°
2026-05-04 13:29 26.93462 105.75836 29201 ft 513 kts 62°
2026-05-04 13:29 26.95864 105.81909 29197 ft 513 kts 62°
2026-05-04 13:30 26.98744 105.89226 29195 ft 513 kts 62°
2026-05-04 13:30 27.01628 105.96548 29199 ft 513 kts 62°
2026-05-04 13:31 27.04521 106.03870 29201 ft 513 kts 60°
2026-05-04 13:31 27.07665 106.11046 29194 ft 512 kts 57°
2026-05-04 13:32 27.11017 106.18086 29193 ft 512 kts 57°
2026-05-04 13:32 27.14340 106.25165 29208 ft 513 kts 57°
2026-05-04 13:33 27.17578 106.32305 29196 ft 514 kts 58°
2026-05-04 13:33 27.20804 106.39472 29190 ft 514 kts 58°
2026-05-04 13:34 27.24028 106.46597 29183 ft 516 kts 57°
2026-05-04 13:34 27.27317 106.53823 29189 ft 516 kts 57°
2026-05-04 13:35 27.32212 106.64620 29190 ft 517 kts 58°
2026-05-04 13:36 27.35443 106.71788 29198 ft 518 kts 57°
2026-05-04 13:36 27.38699 106.79014 29199 ft 518 kts 57°
2026-05-04 13:37 27.41942 106.86258 29184 ft 519 kts 58°
2026-05-04 13:37 27.45204 106.93562 29187 ft 519 kts 58°
2026-05-04 13:38 27.48444 107.00819 29176 ft 519 kts 57°
2026-05-04 13:38 27.51711 107.08064 29185 ft 519 kts 57°
2026-05-04 13:39 27.54991 107.15305 29176 ft 519 kts 57°
2026-05-04 13:39 27.58276 107.22558 29195 ft 520 kts 57°
2026-05-04 13:40 27.61551 107.29838 29179 ft 521 kts 57°
2026-05-04 13:40 27.64830 107.37132 29171 ft 522 kts 57°
2026-05-04 13:41 27.68118 107.44434 29173 ft 523 kts 57°
2026-05-04 13:41 27.71382 107.51719 29168 ft 524 kts 57°
2026-05-04 13:42 27.76332 107.62790 29164 ft 525 kts 57°
2026-05-04 13:42 27.79623 107.70147 29199 ft 524 kts 57°
2026-05-04 13:43 27.82913 107.77507 29169 ft 526 kts 57°
2026-05-04 13:43 27.86235 107.84877 29136 ft 526 kts 57°
2026-05-04 13:44 27.89606 107.92237 29154 ft 528 kts 56°
2026-05-04 13:44 27.92982 107.99603 29148 ft 528 kts 57°
2026-05-04 13:45 27.96340 108.06993 29143 ft 528 kts 57°
2026-05-04 13:45 27.99687 108.14397 29149 ft 529 kts 57°
2026-05-04 13:46 28.03029 108.21810 29174 ft 528 kts 57°
2026-05-04 13:46 28.06370 108.29213 29172 ft 527 kts 57°
2026-05-04 13:47 28.09704 108.36610 29166 ft 527 kts 57°
2026-05-04 13:47 28.13011 108.43940 29177 ft 526 kts 57°
2026-05-04 13:48 28.16336 108.51337 29159 ft 527 kts 57°
2026-05-04 13:48 28.19657 108.58749 29154 ft 528 kts 57°
2026-05-04 13:49 28.22975 108.66170 29148 ft 528 kts 57°
2026-05-04 13:49 28.26289 108.73587 29191 ft 527 kts 57°
2026-05-04 13:50 28.29591 108.80993 29198 ft 526 kts 57°
2026-05-04 13:50 28.32897 108.88389 29175 ft 525 kts 57°
2026-05-04 13:51 28.36216 108.95765 29159 ft 524 kts 57°
2026-05-04 13:51 28.39529 109.03140 29149 ft 524 kts 57°
2026-05-04 13:52 28.44480 109.14228 29170 ft 525 kts 57°
2026-05-04 13:53 28.47762 109.21632 29167 ft 525 kts 58°
2026-05-04 13:53 28.51022 109.29053 29169 ft 524 kts 58°
2026-05-04 13:54 28.55888 109.40194 29155 ft 524 kts 58°
2026-05-04 13:55 28.60279 109.51622 29146 ft 528 kts 64°
2026-05-04 13:55 28.64278 109.63315 29133 ft 528 kts 64°
2026-05-04 13:56 28.66963 109.71095 29177 ft 527 kts 63°
2026-05-04 13:57 28.71145 109.82649 29168 ft 525 kts 63°
2026-05-04 13:58 28.76691 109.98044 29158 ft 525 kts 64°
2026-05-04 13:58 28.80789 110.09624 29155 ft 524 kts 64°
2026-05-04 13:59 28.83530 110.17339 29143 ft 526 kts 64°
2026-05-04 14:00 28.87646 110.28921 29174 ft 524 kts 64°
2026-05-04 14:00 28.91699 110.40431 29155 ft 522 kts 64°
2026-05-04 14:01 28.94388 110.48077 29141 ft 522 kts 65°
2026-05-04 14:02 28.98447 110.59641 29120 ft 524 kts 65°
2026-05-04 14:02 29.01154 110.67377 29114 ft 524 kts 65°
2026-05-04 14:03 29.03850 110.75109 29161 ft 524 kts 65°
2026-05-04 14:03 29.06573 110.82815 29161 ft 522 kts 65°
2026-05-04 14:04 29.10691 110.94333 29136 ft 522 kts 65°
2026-05-04 14:04 29.13412 111.02035 29129 ft 522 kts 65°
2026-05-04 14:05 29.17469 111.13606 29126 ft 522 kts 65°
2026-05-04 14:06 29.20179 111.21327 29109 ft 524 kts 65°
2026-05-04 14:06 29.22893 111.29075 29150 ft 524 kts 65°
2026-05-04 14:07 29.25600 111.36812 29151 ft 523 kts 65°
2026-05-04 14:07 29.28291 111.44532 29140 ft 521 kts 65°
2026-05-04 14:08 29.30972 111.52240 29138 ft 521 kts 65°
2026-05-04 14:08 29.33642 111.59947 29120 ft 520 kts 66°
2026-05-04 14:09 29.38739 111.70769 29117 ft 513 kts 52°
2026-05-04 14:10 29.44622 111.81033 29104 ft 514 kts 53°
2026-05-04 14:10 29.48534 111.87903 29094 ft 515 kts 53°
2026-05-04 14:11 29.52463 111.94796 29095 ft 516 kts 53°
2026-05-04 14:11 29.58379 112.05158 29101 ft 518 kts 53°
2026-05-04 14:12 29.62307 112.12096 29145 ft 518 kts 53°
2026-05-04 14:13 29.67530 112.21318 29131 ft 517 kts 53°
2026-05-04 14:13 29.71451 112.28249 29126 ft 517 kts 53°
2026-05-04 14:14 29.75368 112.35190 29126 ft 517 kts 53°
2026-05-04 14:14 29.81213 112.45631 29141 ft 517 kts 53°
2026-05-04 14:15 29.88937 112.59459 29143 ft 516 kts 53°
2026-05-04 14:16 29.94740 112.69885 29136 ft 515 kts 53°
2026-05-04 14:17 30.00533 112.80306 29138 ft 514 kts 54°
2026-05-04 14:18 30.06308 112.90737 29145 ft 513 kts 54°
2026-05-04 14:19 30.13978 113.04618 29131 ft 512 kts 54°
2026-05-04 14:19 30.17794 113.11562 29131 ft 512 kts 54°
2026-05-04 14:20 30.21522 113.18340 29130 ft 512 kts 54°
2026-05-04 14:20 30.25366 113.25262 29143 ft 510 kts 53°
2026-05-04 14:21 30.31170 113.35553 29138 ft 508 kts 53°
2026-05-04 14:21 30.35022 113.42411 29135 ft 508 kts 53°
2026-05-04 14:22 30.38854 113.49277 29115 ft 508 kts 54°
2026-05-04 14:22 30.42683 113.56152 29138 ft 507 kts 54°
2026-05-04 14:23 30.48408 113.66434 29140 ft 505 kts 54°
2026-05-04 14:24 30.52203 113.73276 29135 ft 504 kts 54°
2026-05-04 14:24 30.55544 113.80430 29118 ft 508 kts 68°
2026-05-04 14:25 30.56953 113.88465 29108 ft 511 kts 88°
2026-05-04 14:25 30.56101 114.00758 29105 ft 511 kts 97°
2026-05-04 14:26 30.55321 114.08953 29096 ft 511 kts 97°
2026-05-04 14:26 30.54517 114.17148 29132 ft 511 kts 97°
2026-05-04 14:27 30.53733 114.25329 29137 ft 510 kts 97°
2026-05-04 14:27 30.52944 114.33485 29134 ft 509 kts 97°
2026-05-04 14:28 30.52149 114.41639 29122 ft 509 kts 97°
2026-05-04 14:28 30.51344 114.49793 29113 ft 509 kts 97°
2026-05-04 14:29 30.49724 114.66107 29121 ft 509 kts 97°
2026-05-04 14:30 30.48893 114.74260 29125 ft 509 kts 97°
2026-05-04 14:31 30.47648 114.86498 29138 ft 510 kts 97°
2026-05-04 14:32 30.45984 115.02814 29136 ft 509 kts 98°
2026-05-04 14:32 30.45133 115.10974 29129 ft 510 kts 98°
2026-05-04 14:33 30.44278 115.19146 29129 ft 511 kts 98°
2026-05-04 14:33 30.42628 115.27112 29132 ft 507 kts 114°
2026-05-04 14:34 30.39281 115.34227 29132 ft 502 kts 127°
2026-05-04 14:34 30.35482 115.41005 29140 ft 502 kts 127°
2026-05-04 14:35 30.31678 115.47781 29148 ft 502 kts 127°
2026-05-04 14:35 30.27867 115.54552 29154 ft 502 kts 127°
2026-05-04 14:36 30.24051 115.61316 29112 ft 502 kts 128°
2026-05-04 14:36 30.20230 115.68105 29126 ft 505 kts 128°
2026-05-04 14:37 30.16375 115.74925 29131 ft 508 kts 128°
2026-05-04 14:37 30.12512 115.81747 29139 ft 509 kts 128°
2026-05-04 14:38 30.08631 115.88598 29145 ft 510 kts 128°
2026-05-04 14:38 30.04741 115.95448 29139 ft 510 kts 129°
2026-05-04 14:39 30.00845 116.02299 29140 ft 511 kts 129°
2026-05-04 14:39 29.96913 116.09189 29149 ft 512 kts 129°
2026-05-04 14:40 29.91043 116.19465 29157 ft 513 kts 129°
2026-05-04 14:40 29.87208 116.26177 29151 ft 513 kts 129°
2026-05-04 14:41 29.83277 116.33046 29128 ft 515 kts 130°
2026-05-04 14:42 29.75318 116.46904 29154 ft 519 kts 130°
2026-05-04 14:42 29.71402 116.53700 29166 ft 520 kts 131°
2026-05-04 14:43 29.67402 116.60618 29153 ft 520 kts 131°
2026-05-04 14:43 29.63395 116.67547 29149 ft 520 kts 131°
2026-05-04 14:44 29.59386 116.74475 28951 ft 521 kts 131°
2026-05-04 14:44 29.57379 116.77941 28685 ft 521 kts 131°
2026-05-04 14:44 29.55360 116.81425 28412 ft 520 kts 130°
2026-05-04 14:45 29.53353 116.84885 28160 ft 520 kts 130°
2026-05-04 14:45 29.51351 116.88337 27897 ft 520 kts 130°
2026-05-04 14:45 29.49343 116.91792 27637 ft 520 kts 130°
2026-05-04 14:45 29.47237 116.95155 27377 ft 516 kts 139°
2026-05-04 14:46 29.44602 116.97846 27131 ft 500 kts 154°
2026-05-04 14:46 29.42618 116.99115 26934 ft 487 kts 165°
2026-05-04 14:46 29.39003 117.00425 26656 ft 473 kts 174°
2026-05-04 14:46 29.35822 117.01341 26412 ft 471 kts 174°
2026-05-04 14:47 29.32711 117.02218 26174 ft 470 kts 174°
2026-05-04 14:47 29.29542 117.03098 25937 ft 468 kts 174°
2026-05-04 14:47 29.26392 117.03958 25692 ft 467 kts 174°
2026-05-04 14:47 29.23211 117.04812 25457 ft 465 kts 174°
2026-05-04 14:48 29.20085 117.05640 25221 ft 463 kts 174°
2026-05-04 14:48 29.16929 117.06461 24985 ft 462 kts 174°
2026-05-04 14:48 29.13823 117.07258 24741 ft 460 kts 174°
2026-05-04 14:48 29.10717 117.08049 24654 ft 457 kts 174°
2026-05-04 14:49 29.07607 117.08835 24684 ft 458 kts 174°
2026-05-04 14:49 29.04494 117.09623 24683 ft 458 kts 174°
2026-05-04 14:49 29.01383 117.10410 24684 ft 458 kts 174°
2026-05-04 14:49 28.98274 117.11196 24684 ft 458 kts 174°
2026-05-04 14:50 28.95164 117.11982 24684 ft 458 kts 174°
2026-05-04 14:50 28.92053 117.12767 24542 ft 457 kts 174°
2026-05-04 14:50 28.88952 117.13543 24312 ft 456 kts 174°
2026-05-04 14:50 28.85857 117.14313 24070 ft 454 kts 174°
2026-05-04 14:51 28.82779 117.15081 23845 ft 452 kts 174°
2026-05-04 14:51 28.79709 117.15838 23615 ft 450 kts 174°
2026-05-04 14:51 28.76650 117.16582 23349 ft 449 kts 174°
2026-05-04 14:51 28.73600 117.17314 23084 ft 447 kts 174°
2026-05-04 14:52 28.70565 117.18034 22821 ft 445 kts 174°
2026-05-04 14:52 28.67540 117.18739 22650 ft 443 kts 174°
2026-05-04 14:52 28.64553 117.19669 22686 ft 452 kts 163°
2026-05-04 14:52 28.61839 117.21499 22688 ft 465 kts 146°
2026-05-04 14:53 28.59607 117.24216 22671 ft 478 kts 129°
2026-05-04 14:53 28.58075 117.27617 22693 ft 490 kts 112°
2026-05-04 14:53 28.57387 117.31423 22695 ft 496 kts 95°
2026-05-04 14:53 28.57615 117.35341 22684 ft 498 kts 78°
2026-05-04 14:54 28.58741 117.39043 22692 ft 495 kts 61°
2026-05-04 14:54 28.60671 117.42231 22689 ft 487 kts 44°
2026-05-04 14:54 28.63249 117.44672 22690 ft 478 kts 27°
2026-05-04 14:54 28.66246 117.46180 22690 ft 467 kts
2026-05-04 14:55 28.69402 117.46936 22694 ft 463 kts
2026-05-04 14:55 28.72572 117.47594 22677 ft 463 kts
2026-05-04 14:55 28.74673 117.48032 22694 ft 464 kts
2026-05-04 14:55 28.77851 117.48698 22695 ft 465 kts
2026-05-04 14:56 28.81028 117.49364 22728 ft 465 kts
2026-05-04 14:56 28.84208 117.50018 22690 ft 463 kts
2026-05-04 14:56 28.87374 117.50653 22696 ft 462 kts
2026-05-04 14:56 28.90540 117.51287 22695 ft 462 kts
2026-05-04 14:57 28.93703 117.51919 22695 ft 462 kts
2026-05-04 14:57 28.96871 117.52435 22691 ft 456 kts 356°
2026-05-04 14:57 28.99989 117.52147 22698 ft 447 kts 345°
2026-05-04 14:57 29.02986 117.51584 22694 ft 446 kts 344°
2026-05-04 14:58 29.06048 117.50993 22695 ft 446 kts 344°
2026-05-04 14:58 29.09102 117.50398 22695 ft 445 kts 344°
2026-05-04 14:58 29.12145 117.49797 22694 ft 444 kts 344°
2026-05-04 14:58 29.15183 117.49195 22695 ft 444 kts 344°
2026-05-04 14:59 29.18210 117.48597 22695 ft 444 kts 344°
2026-05-04 14:59 29.21298 117.47985 22694 ft 444 kts 344°
2026-05-04 14:59 29.26888 117.45532 22690 ft 423 kts 316°
2026-05-04 15:00 29.28908 117.43148 22693 ft 415 kts 305°
2026-05-04 15:00 29.30720 117.40570 22697 ft 415 kts 304°
2026-05-04 15:00 29.32523 117.37985 22696 ft 416 kts 304°
2026-05-04 15:01 29.36104 117.32837 22700 ft 415 kts 304°
2026-05-04 15:01 29.37925 117.30213 22691 ft 415 kts 304°
2026-05-04 15:01 29.39712 117.27629 22441 ft 413 kts 304°
2026-05-04 15:01 29.41489 117.25053 22181 ft 411 kts 304°
2026-05-04 15:02 29.43239 117.22509 21919 ft 410 kts 304°
2026-05-04 15:02 29.45024 117.19906 21755 ft 409 kts 304°
2026-05-04 15:02 29.46768 117.17355 21790 ft 410 kts 304°
2026-05-04 15:02 29.48594 117.14831 21789 ft 422 kts 311°
2026-05-04 15:03 29.50970 117.12797 21790 ft 434 kts 327°
2026-05-04 15:03 29.53855 117.11655 21787 ft 447 kts 346°
2026-05-04 15:03 29.56998 117.11644 21787 ft 460 kts
2026-05-04 15:03 29.60059 117.12867 21790 ft 479 kts 25°
2026-05-04 15:04 29.62715 117.15294 21791 ft 501 kts 45°
2026-05-04 15:04 29.64617 117.18700 21786 ft 514 kts 66°
2026-05-04 15:04 29.65600 117.22655 21788 ft 518 kts 78°
2026-05-04 15:04 29.66121 117.26748 21794 ft 518 kts 84°
2026-05-04 15:05 29.66368 117.30828 21795 ft 519 kts 88°
2026-05-04 15:05 29.66495 117.34970 21795 ft 519 kts 89°
2026-05-04 15:05 29.66625 117.39110 21794 ft 519 kts 88°
2026-05-04 15:05 29.66834 117.43253 21794 ft 519 kts 86°
2026-05-04 15:06 29.67136 117.47383 21796 ft 519 kts 84°
2026-05-04 15:06 29.67513 117.51516 21798 ft 520 kts 84°
2026-05-04 15:06 29.67926 117.55643 21797 ft 520 kts 83°
2026-05-04 15:07 29.68723 117.63732 21530 ft 510 kts 84°
2026-05-04 15:07 29.69084 117.67765 21279 ft 506 kts 84°
2026-05-04 15:07 29.69425 117.71782 21032 ft 503 kts 84°
2026-05-04 15:07 29.69753 117.75775 20786 ft 500 kts 84°
2026-05-04 15:08 29.70077 117.79751 20542 ft 499 kts 84°
2026-05-04 15:08 29.70399 117.83709 20300 ft 496 kts 84°
2026-05-04 15:08 29.70719 117.87595 20059 ft 494 kts 84°
2026-05-04 15:08 29.71051 117.91568 19835 ft 491 kts 84°
2026-05-04 15:09 29.71379 117.95470 19788 ft 490 kts 84°
2026-05-04 15:09 29.71707 117.99378 19802 ft 491 kts 84°
2026-05-04 15:09 29.72036 118.03280 19819 ft 490 kts 84°
2026-05-04 15:10 29.72679 118.11069 19544 ft 488 kts 84°
2026-05-04 15:10 29.72995 118.14956 19310 ft 487 kts 84°
2026-05-04 15:10 29.73620 118.22686 18847 ft 483 kts 85°
2026-05-04 15:11 29.73701 118.26539 18609 ft 481 kts 93°
2026-05-04 15:11 29.73389 118.30313 18391 ft 479 kts 97°
2026-05-04 15:11 29.73040 118.34115 18122 ft 477 kts 96°
2026-05-04 15:11 29.72693 118.37950 17862 ft 474 kts 96°
2026-05-04 15:12 29.72353 118.41711 17778 ft 471 kts 96°
2026-05-04 15:12 29.72014 118.45463 17811 ft 472 kts 96°
2026-05-04 15:12 29.71676 118.49213 17806 ft 471 kts 96°
2026-05-04 15:12 29.71337 118.52965 17764 ft 472 kts 96°
2026-05-04 15:13 29.70998 118.56708 17500 ft 469 kts 96°
2026-05-04 15:13 29.70659 118.60427 17249 ft 466 kts 96°
2026-05-04 15:13 29.70320 118.64119 16999 ft 463 kts 96°
2026-05-04 15:13 29.69980 118.67790 16740 ft 460 kts 96°
2026-05-04 15:14 29.69640 118.71430 16488 ft 456 kts 96°
2026-05-04 15:14 29.69306 118.75046 16239 ft 453 kts 96°
2026-05-04 15:14 29.68981 118.78606 15992 ft 450 kts 96°
2026-05-04 15:14 29.68661 118.82174 15749 ft 447 kts 96°
2026-05-04 15:15 29.68341 118.85720 15505 ft 444 kts 96°
2026-05-04 15:15 29.68022 118.89242 15264 ft 441 kts 96°
2026-05-04 15:15 29.67702 118.92736 15025 ft 438 kts 96°
2026-05-04 15:16 29.67071 118.99618 14547 ft 432 kts 96°
2026-05-04 15:16 29.66755 119.03037 14314 ft 429 kts 96°
2026-05-04 15:16 29.66140 119.09633 13857 ft 424 kts 96°
2026-05-04 15:17 29.65832 119.12946 13597 ft 421 kts 96°
2026-05-04 15:17 29.65206 119.19644 13074 ft 416 kts 96°
2026-05-04 15:17 29.64908 119.22948 12890 ft 414 kts 96°
2026-05-04 15:18 29.64619 119.26239 12919 ft 415 kts 96°
2026-05-04 15:18 29.64331 119.29540 12919 ft 416 kts 96°
2026-05-04 15:18 29.64050 119.32846 12920 ft 416 kts 95°
2026-05-04 15:19 29.63641 119.39432 12919 ft 416 kts 93°
2026-05-04 15:19 29.63478 119.42746 12920 ft 416 kts 93°
2026-05-04 15:19 29.63148 119.49376 12917 ft 416 kts 93°
2026-05-04 15:20 29.63011 119.52698 12920 ft 415 kts 92°
2026-05-04 15:20 29.62918 119.55990 12915 ft 401 kts 91°
2026-05-04 15:20 29.62982 119.59106 12919 ft 380 kts 84°
2026-05-04 15:20 29.63397 119.62025 12919 ft 360 kts 76°
2026-05-04 15:21 29.64011 119.64499 12918 ft 344 kts 70°
2026-05-04 15:21 29.64407 119.65793 12915 ft 335 kts 69°
2026-05-04 15:21 29.66334 119.70037 12918 ft 304 kts 54°
2026-05-04 15:22 29.67583 119.71923 12919 ft 290 kts 49°
2026-05-04 15:22 29.68853 119.73695 12890 ft 287 kts 50°
2026-05-04 15:22 29.71340 119.77209 12376 ft 282 kts 50°
2026-05-04 15:23 29.72571 119.78957 12120 ft 280 kts 50°
2026-05-04 15:23 29.73794 119.80695 11863 ft 278 kts 50°
2026-05-04 15:23 29.75007 119.82421 11623 ft 276 kts 50°
2026-05-04 15:23 29.76208 119.84135 11373 ft 274 kts 50°
2026-05-04 15:24 29.78477 119.87372 10916 ft 270 kts 50°
2026-05-04 15:24 29.80839 119.90738 10437 ft 269 kts 50°
2026-05-04 15:25 29.82011 119.92407 10192 ft 267 kts 50°
2026-05-04 15:25 29.83178 119.94067 9953 ft 266 kts 50°
2026-05-04 15:25 29.84331 119.95724 9697 ft 265 kts 52°
2026-05-04 15:26 29.86260 119.99316 9165 ft 263 kts 60°
2026-05-04 15:26 29.87123 120.01135 8920 ft 262 kts 60°
2026-05-04 15:26 29.88860 120.04791 8414 ft 260 kts 60°
2026-05-04 15:27 29.89694 120.06550 8169 ft 259 kts 60°
2026-05-04 15:27 29.91419 120.10184 7673 ft 257 kts 60°
2026-05-04 15:28 29.93129 120.13792 7184 ft 256 kts 60°
2026-05-04 15:28 29.93980 120.15586 6977 ft 254 kts 60°
2026-05-04 15:28 29.95674 120.19169 6668 ft 254 kts 60°
2026-05-04 15:29 29.96517 120.20957 6411 ft 254 kts 60°
2026-05-04 15:30 29.99850 120.28008 5903 ft 254 kts 61°
2026-05-04 15:30 30.02270 120.33416 5905 ft 254 kts 62°
2026-05-04 15:31 30.03880 120.37067 5478 ft 253 kts 63°
2026-05-04 15:31 30.03934 120.37189 5461 ft 253 kts 63°
2026-05-04 15:32 30.06164 120.42204 4908 ft 252 kts 63°
2026-05-04 15:32 30.07765 120.45796 4910 ft 252 kts 63°
2026-05-04 15:33 30.09371 120.49401 4909 ft 252 kts 63°
2026-05-04 15:34 30.11716 120.54684 4905 ft 233 kts 63°
2026-05-04 15:34 30.12361 120.56138 4909 ft 232 kts 63°
2026-05-04 15:34 30.13820 120.59428 4911 ft 230 kts 63°
2026-05-04 15:35 30.15274 120.62723 4909 ft 231 kts 63°
2026-05-04 15:35 30.15999 120.64367 4905 ft 225 kts 63°
2026-05-04 15:35 30.16679 120.65905 4900 ft 207 kts 63°
2026-05-04 15:36 30.18003 120.68834 4216 ft 214 kts 56°
2026-05-04 15:36 30.18733 120.69653 3852 ft 221 kts 31°
2026-05-04 15:36 30.20204 120.70095 3479 ft 221 kts 356°
2026-05-04 15:37 30.22132 120.69394 3000 ft 220 kts 335°
2026-05-04 15:37 30.22967 120.68959 2851 ft 217 kts 333°
2026-05-04 15:37 30.23880 120.68476 2679 ft 214 kts 333°
2026-05-04 15:37 30.25601 120.67573 2381 ft 203 kts 333°
2026-05-04 15:38 30.26875 120.66913 2132 ft 199 kts 333°
2026-05-04 15:38 30.28130 120.66265 2015 ft 197 kts 332°
2026-05-04 15:38 30.28866 120.65650 1992 ft 192 kts 307°
2026-05-04 15:38 30.29470 120.64308 2002 ft 188 kts 286°
2026-05-04 15:39 30.29872 120.62945 2002 ft 187 kts 284°
2026-05-04 15:39 30.30164 120.61496 2000 ft 185 kts 275°
2026-05-04 15:39 30.29711 120.58725 1997 ft 177 kts 239°
2026-05-04 15:40 30.29183 120.57531 1990 ft 166 kts 240°
2026-05-04 15:40 30.28669 120.56364 1987 ft 160 kts 239°
2026-05-04 15:40 30.28158 120.55209 1874 ft 158 kts 239°
2026-05-04 15:40 30.27661 120.54086 1705 ft 156 kts 239°
2026-05-04 15:41 30.27206 120.53055 1542 ft 142 kts 239°
2026-05-04 15:41 30.26765 120.52057 1344 ft 137 kts 239°
2026-05-04 15:41 30.26342 120.51101 1171 ft 135 kts 239°
2026-05-04 15:41 30.25912 120.50131 993 ft 135 kts 239°
2026-05-04 15:42 30.25622 120.49476 874 ft 136 kts 240°
2026-05-04 15:42 30.25379 120.48930 774 ft 136 kts 241°
2026-05-04 15:42 30.25073 120.48239 646 ft 138 kts 242°
2026-05-04 15:42 30.24714 120.47424 498 ft 138 kts 242°
2026-05-04 15:43 30.24282 120.46434 336 ft 139 kts 243°
2026-05-04 15:43 30.23906 120.45579 179 ft 140 kts 243°
2026-05-04 15:43 30.23525 120.44734 45 ft 137 kts 240°
2026-05-04 15:43 30.23303 120.44249 29 ft 118 kts 242°
2026-05-04 15:44 30.23158 120.43918 30 ft 90 kts 239°
2026-05-04 15:44 30.23005 120.43581 34 ft 56 kts 243°
2026-05-04 15:44 30.22904 120.43340 34 ft 23 kts 248°
2026-05-04 15:44 30.22876 120.43181 33 ft 22 kts 267°
2026-05-04 15:45 30.22875 120.43054 32 ft 14 kts 271°
2026-05-04 15:45 30.22900 120.42990 32 ft 8 kts 330°
2026-05-04 15:45 30.22917 120.42981 32 ft 7 kts 345°
2026-05-04 15:45 30.22952 120.43009 32 ft 7 kts 63°
2026-05-04 15:46 30.22985 120.43081 32 ft 11 kts 62°
2026-05-04 15:46 30.23019 120.43158 31 ft 11 kts 63°